{"data":{"norad_id":62095,"epoch":"2026-09-21T13:58:14.645280Z","epoch_age_seconds":87608,"freshness":"FRESH","line1":"1 62095U 24220H   26264.58211395  .00111052  00000+0  85679-3 0  9993","line2":"2 62095  43.0021 302.1497 0002127 268.3494  91.7130 15.70856834105866","mean_motion":15.70856834,"eccentricity":0.0002127,"inclination_deg":43.0021,"raan_deg":302.1497,"arg_perigee_deg":268.3494,"mean_anomaly_deg":91.713,"bstar":0.00085679,"rev_number":10586,"period_min":91.669716095846,"perigee_km":355.01450127013,"apogee_km":357.8793932813,"semimajor_km":6734.5839472757,"source":"CELESTRAK","updated_at":"2026-09-22T09:00:49.497378Z"}}